Location: Ceska republika
(50.0000°N, 15.0000°E)
Time: 06:37:18
(UTC+02:00)

ISS - Pass Details

Date: 09 October 2017
Orbit: 401 x 408 km, 51.6° (Epoch: 22 October)

Event Time Altitude Azimuth Distance (km) Brightness Sun altitude
Rises 20:22:16 0° 287° (WNW) 2,329 1.6 -20.2°
Reaches altitude 10° 20:24:24 10° 282° (WNW) 1,468 0.2 -20.5°
Enters shadow 20:27:25 48° 219° (SW) 539 -3.2 -21.0°
